| time (UTC) | temp F | wind direction | speed MPH | gust MPH | rain 1hr in | rain 24hr in | rain mn in | humidity % | barometer mb |
| 20260901205213 | 65 | 30 | 0.0 | 3.0 | 0.00 | 0.00 | 0.00 | 75 | 1020.7 |
| 20260901204213 | 65 | 24 | 1.0 | 3.0 | 0.00 | 0.00 | 0.00 | 75 | 1020.8 |
| 20260901203212 | 65 | 301 | 0.0 | 0.0 | 0.00 | 0.00 | 0.00 | 75 | 1020.7 |
| 20260901202213 | 66 | 301 | 0.0 | 0.0 | 0.00 | 0.00 | 0.00 | 75 | 1020.7 |
| 20260901201213 | 66 | 301 | 0.0 | 0.0 | 0.00 | 0.00 | 0.00 | 75 | 1020.7 |
| 20260901200213 | 67 | 301 | 0.0 | 2.0 | 0.00 | 0.00 | 0.00 | 74 | 1020.6 |
| 20260901195214 | 67 | 311 | 0.0 | 0.0 | 0.00 | 0.00 | 0.00 | 73 | 1020.6 |
| 20260901194213 | 68 | 67 | 0.0 | 0.0 | 0.00 | 0.00 | 0.00 | 72 | 1020.6 |
| 20260901193213 | 69 | 67 | 0.0 | 0.0 | 0.00 | 0.00 | 0.00 | 72 | 1020.5 |
| 20260901192212 | 69 | 67 | 0.0 | 0.0 | 0.00 | 0.00 | 0.00 | 70 | 1020.4 |
| 20260901191213 | 70 | 67 | 0.0 | 0.0 | 0.00 | 0.00 | 0.00 | 68 | 1020.4 |
| 20260901190213 | 70 | 73 | 0.0 | 2.0 | 0.00 | 0.00 | 0.00 | 68 | 1020.3 |
| 20260901185212 | 71 | 75 | 1.0 | 2.0 | 0.00 | 0.00 | 0.00 | 67 | 1020.2 |
| 20260901184212 | 71 | 85 | 0.0 | 0.0 | 0.00 | 0.00 | 0.00 | 65 | 1020.1 |
| 20260901183213 | 72 | 85 | 0.0 | 0.0 | 0.00 | 0.00 | 0.00 | 63 | 1020.1 |
| 20260901182212 | 73 | 85 | 0.0 | 0.0 | 0.00 | 0.00 | 0.00 | 61 | 1020.1 |
| 20260901181212 | 74 | 85 | 1.0 | 2.0 | 0.00 | 0.00 | 0.00 | 58 | 1020.0 |
| 20260901180212 | 74 | 85 | 1.0 | 3.0 | 0.00 | 0.00 | 0.00 | 58 | 1020.0 |
| 20260901175213 | 75 | 100 | 1.0 | 3.0 | 0.00 | 0.00 | 0.00 | 57 | 1019.8 |
| 20260901174212 | 75 | 90 | 1.0 | 3.0 | 0.00 | 0.00 | 0.00 | 57 | 1019.8 |
| 20260901173212 | 75 | 80 | 1.0 | 3.0 | 0.00 | 0.00 | 0.00 | 55 | 1019.8 |
| 20260901172212 | 76 | 101 | 1.0 | 2.0 | 0.00 | 0.00 | 0.00 | 54 | 1019.8 |
| 20260901171212 | 76 | 107 | 1.0 | 2.0 | 0.00 | 0.00 | 0.00 | 54 | 1019.8 |
| 20260901165212 | 76 | 109 | 2.0 | 3.0 | 0.00 | 0.00 | 0.00 | 53 | 1019.9 |
| 20260901164213 | 77 | 134 | 0.0 | 0.0 | 0.00 | 0.00 | 0.00 | 52 | 1020.0 |
| 20260901163212 | 77 | 128 | 2.0 | 4.0 | 0.00 | 0.00 | 0.00 | 51 | 1020.1 |
| 20260901162212 | 77 | 98 | 0.0 | 3.0 | 0.00 | 0.00 | 0.00 | 50 | 1020.1 |
| 20260901161212 | 77 | 132 | 1.0 | 3.0 | 0.00 | 0.00 | 0.00 | 50 | 1020.1 |
| 20260901160212 | 77 | 86 | 2.0 | 4.0 | 0.00 | 0.00 | 0.00 | 49 | 1020.1 |
| 20260901155212 | 77 | 69 | 2.0 | 6.0 | 0.00 | 0.00 | 0.00 | 48 | 1020.1 |
| 20260901154212 | 77 | 112 | 2.0 | 4.0 | 0.00 | 0.00 | 0.00 | 49 | 1020.1 |
| 20260901153212 | 78 | 88 | 3.0 | 7.0 | 0.00 | 0.00 | 0.00 | 47 | 1020.1 |
| 20260901152212 | 78 | 141 | 1.0 | 3.0 | 0.00 | 0.00 | 0.00 | 48 | 1020.1 |
| 20260901151212 | 78 | 88 | 0.0 | 7.0 | 0.00 | 0.00 | 0.00 | 47 | 1020.1 |
| 20260901150212 | 78 | 155 | 0.0 | 4.0 | 0.00 | 0.00 | 0.00 | 47 | 1020.1 |
| 20260901145212 | 78 | 88 | 3.0 | 6.0 | 0.00 | 0.00 | 0.00 | 47 | 1020.1 |
| 20260901144212 | 78 | 178 | 2.0 | 4.0 | 0.00 | 0.00 | 0.00 | 47 | 1020.1 |
| 20260901143213 | 78 | 145 | 1.0 | 4.0 | 0.00 | 0.00 | 0.00 | 46 | 1020.2 |
| 20260901142212 | 78 | 269 | 0.0 | 3.0 | 0.00 | 0.00 | 0.00 | 47 | 1020.3 |
| 20260901141213 | 78 | 49 | 1.0 | 4.0 | 0.00 | 0.00 | 0.00 | 47 | 1020.4 |
| 20260901140212 | 78 | 269 | 0.0 | 7.0 | 0.00 | 0.00 | 0.00 | 48 | 1020.4 |
| 20260901135212 | 78 | 28 | 1.0 | 4.0 | 0.00 | 0.00 | 0.00 | 49 | 1020.4 |
| 20260901134212 | 78 | 99 | 3.0 | 7.0 | 0.00 | 0.00 | 0.00 | 47 | 1020.5 |
| 20260901133212 | 79 | 133 | 2.0 | 6.0 | 0.00 | 0.00 | 0.00 | 47 | 1020.6 |
| 20260901132212 | 78 | 344 | 2.0 | 4.0 | 0.00 | 0.00 | 0.00 | 47 | 1020.6 |
| 20260901131212 | 79 | 62 | 2.0 | 5.0 | 0.00 | 0.00 | 0.00 | 46 | 1020.7 |
| 20260901130212 | 80 | 121 | 3.0 | 7.0 | 0.00 | 0.00 | 0.00 | 45 | 1020.8 |
| 20260901125212 | 81 | 128 | 4.0 | 9.0 | 0.00 | 0.00 | 0.00 | 46 | 1020.8 |
| 20260901124212 | 79 | 228 | 3.0 | 6.0 | 0.00 | 0.00 | 0.00 | 47 | 1020.9 |
| 20260901123212 | 79 | 150 | 2.0 | 5.0 | 0.00 | 0.00 | 0.00 | 45 | 1021.0 |
| 20260901122212 | 80 | 55 | 3.0 | 6.0 | 0.00 | 0.00 | 0.00 | 44 | 1021.1 |
| 20260901121212 | 81 | 159 | 5.0 | 8.0 | 0.00 | 0.00 | 0.00 | 44 | 1021.1 |
| 20260901120212 | 81 | 89 | 2.0 | 4.0 | 0.00 | 0.00 | 0.00 | 42 | 1021.1 |
| 20260901115212 | 81 | 339 | 2.0 | 6.0 | 0.00 | 0.00 | 0.00 | 44 | 1021.2 |
| 20260901114212 | 80 | 101 | 1.0 | 7.0 | 0.00 | 0.00 | 0.00 | 43 | 1021.2 |
| 20260901113212 | 79 | 189 | 2.0 | 4.0 | 0.00 | 0.00 | 0.00 | 46 | 1021.3 |
| 20260901112212 | 78 | 283 | 3.0 | 7.0 | 0.00 | 0.00 | 0.00 | 47 | 1021.4 |
| 20260901111212 | 78 | 217 | 3.0 | 7.0 | 0.00 | 0.00 | 0.00 | 48 | 1021.5 |
| 20260901110212 | 78 | 234 | 2.0 | 3.0 | 0.00 | 0.00 | 0.00 | 49 | 1021.4 |
| 20260901105212 | 78 | 230 | 3.0 | 5.0 | 0.00 | 0.00 | 0.00 | 51 | 1021.4 |
| 20260901104212 | 78 | 96 | 1.0 | 6.0 | 0.00 | 0.00 | 0.00 | 50 | 1021.5 |
| 20260901103212 | 78 | 160 | 4.0 | 7.0 | 0.00 | 0.00 | 0.00 | 49 | 1021.6 |
| 20260901102212 | 78 | 202 | 2.0 | 5.0 | 0.00 | 0.00 | 0.00 | 51 | 1021.7 |
| 20260901101212 | 78 | 203 | 1.0 | 4.0 | 0.00 | 0.00 | 0.00 | 51 | 1021.7 |
| 20260901100212 | 77 | 78 | 1.0 | 3.0 | 0.00 | 0.00 | 0.00 | 53 | 1021.8 |
| 20260901095212 | 76 | 322 | 1.0 | 6.0 | 0.00 | 0.00 | 0.00 | 55 | 1021.8 |
| 20260901094212 | 75 | 119 | 2.0 | 5.0 | 0.00 | 0.00 | 0.00 | 57 | 1021.9 |
| 20260901093212 | 74 | 113 | 2.0 | 3.0 | 0.00 | 0.00 | 0.00 | 58 | 1021.9 |
| 20260901092212 | 74 | 275 | 2.0 | 4.0 | 0.00 | 0.00 | 0.00 | 60 | 1022.0 |
| 20260901091212 | 73 | 241 | 1.0 | 3.0 | 0.00 | 0.00 | 0.00 | 62 | 1022.0 |
| 20260901090212 | 72 | 214 | 1.0 | 5.0 | 0.00 | 0.00 | 0.00 | 66 | 1021.9 |
| 20260901085212 | 71 | 332 | 1.0 | 3.0 | 0.00 | 0.00 | 0.00 | 68 | 1021.9 |
| 20260901084212 | 71 | 121 | 2.0 | 4.0 | 0.00 | 0.00 | 0.00 | 69 | 1022.0 |
| 20260901083212 | 70 | 178 | 2.0 | 4.0 | 0.00 | 0.00 | 0.00 | 72 | 1021.9 |
| 20260901082212 | 69 | 321 | 1.0 | 4.0 | 0.00 | 0.00 | 0.00 | 74 | 1022.0 |
| 20260901081212 | 68 | 184 | 2.0 | 7.0 | 0.00 | 0.00 | 0.00 | 78 | 1022.0 |
| 20260901075212 | 66 | 277 | 3.0 | 7.0 | 0.00 | 0.00 | 0.00 | 84 | 1021.9 |
| 20260901074212 | 65 | 206 | 2.0 | 5.0 | 0.00 | 0.00 | 0.00 | 87 | 1021.9 |
| 20260901073212 | 64 | 232 | 0.0 | 4.0 | 0.00 | 0.00 | 0.00 | 88 | 1021.9 |
| 20260901072212 | 63 | 268 | 0.0 | 1.0 | 0.00 | 0.00 | 0.00 | 89 | 1021.9 |
| 20260901071212 | 62 | 244 | 0.0 | 0.0 | 0.00 | 0.00 | 0.00 | 89 | 1021.8 |
| 20260901070212 | 62 | 271 | 0.0 | 0.0 | 0.00 | 0.00 | 0.00 | 90 | 1021.9 |
| 20260901065212 | 61 | 260 | 0.0 | 1.0 | 0.00 | 0.00 | 0.00 | 90 | 1021.9 |
| 20260901064212 | 61 | 190 | 0.0 | 0.0 | 0.00 | 0.00 | 0.00 | 90 | 1022.0 |
| 20260901063211 | 60 | 215 | 0.0 | 0.0 | 0.00 | 0.00 | 0.00 | 90 | 1021.9 |
| 20260901062212 | 60 | 224 | 0.0 | 0.0 | 0.00 | 0.00 | 0.00 | 90 | 1021.9 |
| 20260901061212 | 59 | 245 | 0.0 | 0.0 | 0.00 | 0.00 | 0.00 | 90 | 1021.7 |
| 20260901060212 | 59 | 222 | 0.0 | 0.0 | 0.00 | 0.00 | 0.00 | 90 | 1021.8 |
| 20260901055212 | 59 | 234 | 0.0 | 0.0 | 0.00 | 0.00 | 0.00 | 89 | 1021.6 |
| 20260901054211 | 59 | 225 | 0.0 | 0.0 | 0.00 | 0.00 | 0.00 | 89 | 1021.6 |
| 20260901053211 | 58 | 258 | 0.0 | 0.0 | 0.00 | 0.00 | 0.00 | 89 | 1021.5 |
| 20260901052212 | 58 | 277 | 0.0 | 0.0 | 0.00 | 0.00 | 0.00 | 88 | 1021.5 |
| 20260901051211 | 58 | 217 | 0.0 | 0.0 | 0.00 | 0.00 | 0.00 | 88 | 1021.4 |
| 20260901050211 | 58 | 254 | 0.0 | 0.0 | 0.00 | 0.00 | 0.00 | 88 | 1021.4 |
| 20260901045211 | 59 | 223 | 0.0 | 0.0 | 0.00 | 0.00 | 0.00 | 88 | 1021.4 |
| 20260901044214 | 59 | 210 | 0.0 | 0.0 | 0.00 | 0.00 | 0.00 | 88 | 1021.4 |
| 20260901043211 | 59 | 195 | 0.0 | 0.0 | 0.00 | 0.00 | 0.00 | 87 | 1021.3 |
| 20260901042211 | 59 | 209 | 0.0 | 0.0 | 0.00 | 0.00 | 0.00 | 87 | 1021.3 |
| 20260901041211 | 59 | 252 | 0.0 | 0.0 | 0.00 | 0.00 | 0.00 | 87 | 1021.3 |
| 20260901040212 | 59 | 203 | 0.0 | 0.0 | 0.00 | 0.00 | 0.00 | 86 | 1021.3 |
| 20260901035211 | 60 | 211 | 0.0 | 0.0 | 0.00 | 0.00 | 0.00 | 86 | 1021.2 |
| 20260901034212 | 60 | 263 | 0.0 | 0.0 | 0.00 | 0.00 | 0.00 | 86 | 1021.0 |
| 20260901033212 | 60 | 194 | 1.0 | 3.0 | 0.00 | 0.00 | 0.00 | 86 | 1021.1 |
| 20260901032211 | 60 | 211 | 1.0 | 3.0 | 0.00 | 0.00 | 0.00 | 85 | 1021.2 |
| 20260901031212 | 60 | 264 | 1.0 | 3.0 | 0.00 | 0.00 | 0.00 | 85 | 1021.1 |
| 20260901030211 | 60 | 221 | 1.0 | 3.0 | 0.00 | 0.00 | 0.00 | 85 | 1021.0 |
| 20260901025211 | 60 | 228 | 0.0 | 4.0 | 0.00 | 0.00 | 0.00 | 84 | 1021.0 |
| 20260901024211 | 61 | 262 | 1.0 | 4.0 | 0.00 | 0.00 | 0.00 | 84 | 1021.1 |
| 20260901023212 | 61 | 225 | 0.0 | 0.0 | 0.00 | 0.00 | 0.00 | 84 | 1021.1 |
| 20260901022211 | 61 | 211 | 0.0 | 0.0 | 0.00 | 0.00 | 0.00 | 83 | 1021.2 |
| 20260901021211 | 61 | 211 | 0.0 | 0.0 | 0.00 | 0.00 | 0.00 | 83 | 1021.1 |
| 20260901020211 | 62 | 175 | 0.0 | 0.0 | 0.00 | 0.00 | 0.00 | 83 | 1021.0 |
| 20260901015211 | 62 | 193 | 0.0 | 6.0 | 0.00 | 0.00 | 0.00 | 83 | 1020.9 |
| 20260901014211 | 62 | 149 | 0.0 | 2.0 | 0.00 | 0.00 | 0.00 | 82 | 1020.9 |
| 20260901013211 | 62 | 307 | 0.0 | 2.0 | 0.00 | 0.00 | 0.00 | 82 | 1020.9 |
| 20260901012211 | 62 | 263 | 2.0 | 4.0 | 0.00 | 0.00 | 0.00 | 83 | 1020.8 |
| 20260901011211 | 62 | 255 | 3.0 | 4.0 | 0.00 | 0.00 | 0.00 | 83 | 1020.9 |
| 20260901010211 | 62 | 251 | 2.0 | 5.0 | 0.00 | 0.00 | 0.00 | 83 | 1020.8 |
| 20260901005211 | 62 | 250 | 2.0 | 5.0 | 0.00 | 0.00 | 0.00 | 82 | 1020.8 |
| 20260901004211 | 62 | 238 | 1.0 | 4.0 | 0.00 | 0.00 | 0.00 | 82 | 1020.7 |
| 20260901003211 | 62 | 213 | 0.0 | 0.0 | 0.00 | 0.00 | 0.00 | 82 | 1020.7 |
| 20260901002211 | 62 | 244 | 0.0 | 0.0 | 0.00 | 0.00 | 0.00 | 82 | 1020.8 |
| 20260901001211 | 62 | 243 | 0.0 | 0.0 | 0.00 | 0.00 | 0.00 | 82 | 1020.8 |
| 20260901000211 | 62 | 175 | 1.0 | 3.0 | 0.00 | 0.00 | 0.00 | 82 | 1020.7 |
| 20260831235211 | 62 | 176 | 2.0 | 4.0 | 0.00 | 0.00 | 0.00 | 81 | 1020.7 |
| 20260831234211 | 62 | 219 | 1.0 | 3.0 | 0.00 | 0.00 | 0.00 | 81 | 1020.7 |
| 20260831233212 | 62 | 228 | 3.0 | 4.0 | 0.00 | 0.00 | 0.00 | 81 | 1020.7 |
| 20260831232211 | 62 | 223 | 1.0 | 4.0 | 0.00 | 0.00 | 0.00 | 81 | 1020.7 |
| 20260831231211 | 62 | 193 | 2.0 | 4.0 | 0.00 | 0.00 | 0.00 | 81 | 1020.7 |
| 20260831230211 | 62 | 215 | 3.0 | 5.0 | 0.00 | 0.00 | 0.00 | 80 | 1020.6 |
| 20260831225211 | 62 | 193 | 3.0 | 4.0 | 0.00 | 0.04 | 0.00 | 80 | 1020.7 |
| 20260831224211 | 62 | 167 | 3.0 | 5.0 | 0.00 | 0.04 | 0.00 | 79 | 1020.6 |
| 20260831223211 | 62 | 188 | 1.0 | 4.0 | 0.00 | 0.04 | 0.00 | 79 | 1020.6 |
| 20260831222211 | 63 | 228 | 2.0 | 7.0 | 0.00 | 0.04 | 0.00 | 78 | 1020.8 |
| 20260831221211 | 63 | 186 | 2.0 | 4.0 | 0.00 | 0.04 | 0.00 | 78 | 1020.7 |
| 20260831220211 | 63 | 167 | 3.0 | 5.0 | 0.00 | 0.04 | 0.00 | 77 | 1020.8 |
| 20260831215211 | 63 | 163 | 3.0 | 5.0 | 0.00 | 0.06 | 0.06 | 77 | 1020.7 |
| 20260831214211 | 64 | 182 | 0.0 | 0.0 | 0.00 | 0.06 | 0.06 | 76 | 1020.7 |
| 20260831213211 | 64 | 171 | 0.0 | 1.0 | 0.00 | 0.06 | 0.06 | 74 | 1020.7 |
| 20260831212211 | 65 | 138 | 2.0 | 5.0 | 0.00 | 0.06 | 0.06 | 73 | 1020.8 |
| 20260831211212 | 66 | 306 | 0.0 | 0.0 | 0.00 | 0.06 | 0.06 | 71 | 1020.8 |
| 20260831210211 | 67 | 306 | 0.0 | 3.0 | 0.00 | 0.06 | 0.06 | 69 | 1020.6 |